Location: B?lite?ti
(46.2833°N, 22.7333°E)
Time: 04:15:15
(UTC+00:00)

Lacrosse 5 - Pass Details

Date: 24 January 2021
Orbit: 715 x 724 km, 57.0° (Epoch: 22 February)

Event Time Altitude Azimuth Distance (km) Brightness Sun altitude
Rises 15:46:48 0° 309° (NW) 3,123 5.6 -4.7°
Reaches altitude 10° 15:49:11 10° 310° (NW) 2,201 4.8 -5.1°
Maximum altitude 15:54:16 80° 38° (NE) 731 1.9 -5.9°
Drops below altitude 10° 15:59:19 10° 126° (SE) 2,192 4.1 -6.7°
Sets 16:01:41 0° 127° (SE) 3,110 4.8 -7.1°
